Theta_e
345 344 345 338 338 338 336 335 338 344 344 345 345 344 343 344 338 334 335 335 334 331 334 339 344 343 333 332 336 336 335 338 342 342 341 341 339 336 334 331 328 327 341
345 343 341 337 338 337 337 335 334 335 337 338 343 345 344 343 338 335 334 334 334 335 338 341 343 340 333 333 336 332 334 337 338 339 341 340 338 338 340 339 340 330 327
345 342 342 341 340 338 336 336 336 335 334 334 334 334 334 334 334 336 337 339 335 334 334 334 337 337 334 334 336 333 336 338 337 339 339 338 338 340 339 343 342 342 330
345 342 344 343 342 341 339 337 337 337 336 335 336 336 337 337 338 339 340 341 338 337 338 338 336 333 334 336 332 334 338 339 337 336 335 335 337 339 340 339 343 343 340
345 342 344 345 343 341 340 341 339 337 336 336 336 336 337 338 340 339 338 339 341 341 337 338 339 338 338 333 331 335 338 339 338 335 335 335 335 335 336 341 341 341 341
343 343 344 344 345 341 340 342 339 337 336 336 336 337 340 341 341 337 337 340 342 340 339 340 340 337 338 330 333 337 339 338 339 334 334 334 335 335 334 340 338 339 336
342 342 343 345 345 344 341 342 340 337 338 336 338 341 340 338 336 335 333 339 342 337 337 334 330 329 333 338 340 341 342 342 339 337 337 335 335 335 334 336 337 336 339
344 344 346 346 346 346 346 344 342 341 337 336 338 339 339 340 334 334 337 339 336 331 330 331 331 338 341 341 341 341 340 340 340 340 336 337 336 337 335 334 335 335 336
346 345 345 344 342 341 340 338 339 337 336 338 338 338 340 339 337 332 333 334 331 330 332 333 338 340 339 339 340 340 341 340 341 340 336 338 336 335 338 335 336 338 339
343 342 342 340 338 341 339 337 338 338 338 339 339 338 339 340 337 338 334 328 329 329 331 337 337 336 336 338 339 338 339 340 338 339 336 338 337 333 338 339 338 337 339
343 340 339 339 342 339 337 337 338 339 340 340 340 340 341 341 335 334 330 328 329 330 330 331 332 335 335 336 336 337 337 339 337 337 335 339 338 335 335 336 335 338 339
346 343 339 339 339 341 340 339 341 341 341 341 341 341 339 339 332 332 329 332 333 332 334 337 342 341 340 337 336 339 337 335 339 341 340 339 339 338 337 336 334 339 338
344 343 340 339 341 342 341 341 341 340 340 340 341 342 338 338 332 333 335 335 336 341 344 339 338 340 339 341 341 341 337 338 341 340 339 338 340 337 333 334 336 340 340
344 342 342 343 342 341 341 341 341 340 340 340 341 342 338 337 336 337 338 341 343 345 346 337 339 342 340 342 342 341 339 340 341 341 339 338 338 338 337 335 335 340 339
346 345 345 343 343 344 343 342 339 340 341 341 341 342 339 336 341 343 344 344 343 340 340 339 335 340 341 341 341 342 342 340 341 338 335 335 335 333 336 338 339 339 338
345 344 344 343 345 345 344 340 339 340 341 340 341 340 339 341 341 342 342 343 341 342 337 335 343 342 338 340 341 342 343 342 340 334 333 327 328 325 330 335 339 339 338
345 345 345 344 344 343 343 340 339 340 340 338 338 343 342 342 345 344 344 343 340 341 343 342 345 338 338 339 340 343 344 341 341 335 331 325 325 324 326 330 336 339 339
346 345 346 344 344 343 342 340 339 339 338 338 340 341 342 344 342 341 344 345 345 343 341 343 342 336 340 339 342 344 346 345 342 342 335 327 326 326 325 326 328 332 337
345 345 345 344 344 342 341 341 340 338 340 340 339 343 342 342 340 344 344 344 345 344 345 338 342 345 344 341 345 345 346 345 343 343 341 333 328 327 328 330 329 329 330
344 345 345 343 343 342 340 341 340 339 340 339 340 343 342 341 343 344 345 345 347 343 346 344 345 344 344 338 341 346 343 346 346 343 343 343 337 329 329 330 331 332 333
344 344 345 343 342 342 339 340 338 339 340 339 341 343 342 344 342 344 344 344 347 345 347 346 343 344 344 344 341 344 345 345 344 346 345 344 344 338 331 330 332 333 334
344 343 343 342 342 341 339 337 338 342 342 342 341 342 340 340 340 344 346 345 343 342 345 343 343 341 343 341 342 339 344 345 346 346 345 345 345 345 338 336 338 338 336
344 343 342 341 342 339 337 336 339 342 341 342 342 343 343 345 341 345 345 344 342 341 344 344 341 341 344 342 345 338 341 341 345 345 345 343 345 346 345 344 343 346 345
343 343 341 340 341 338 337 339 341 341 341 340 343 344 343 341 344 340 343 344 346 345 341 346 342 345 342 343 344 343 342 339 341 342 341 344 343 344 346 346 345 345 345
344 343 339 339 342 340 342 339 342 341 341 343 341 343 343 343 340 341 337 345 345 346 344 341 346 346 343 343 342 344 342 344 342 344 343 342 342 338 340 343 347 345 345
344 343 339 340 344 338 340 340 341 342 340 343 342 341 343 343 342 342 338 344 343 343 341 341 343 344 340 342 338 342 343 345 345 347 346 346 346 346 342 342 345 342 344
Wind_Speed
23 22 20 21 20 20 21 21 22 23 22 22 23 23 22 19 19 19 16 15 15 16 14 12 11 10 7 2 1 4 6 8 9 8 8 9 7 9 12 14 16 17 18
26 23 21 22 21 20 21 20 21 22 22 21 21 21 19 18 18 16 14 11 13 13 13 10 10 8 4 3 3 2 1 2 5 8 7 8 8 11 12 14 15 17 18
26 25 22 22 22 22 22 21 20 19 20 21 20 20 19 18 16 14 13 12 12 11 11 11 11 9 7 5 4 1 3 3 3 6 7 6 8 11 16 13 18 17 17
27 26 23 22 22 22 23 20 17 19 19 20 19 18 17 16 13 12 11 12 12 11 10 9 8 8 6 6 2 2 2 4 2 4 5 6 8 10 12 19 17 17 16
27 26 23 21 22 22 25 20 21 16 17 18 17 16 15 14 14 12 11 12 12 11 9 8 7 6 6 5 4 4 9 4 4 4 12 11 6 8 9 12 13 16 14
27 26 23 19 20 21 19 19 18 18 16 15 13 13 13 13 14 14 11 11 11 9 9 7 6 5 4 3 3 3 3 3 7 9 3 6 10 14 13 11 14 15 18
26 24 20 19 19 18 18 19 16 17 14 13 13 14 15 12 13 13 10 10 10 8 7 6 6 5 3 2 1 2 3 5 6 9 3 8 8 10 13 14 16 13 18
22 22 20 17 15 15 14 13 16 16 14 13 13 13 11 12 14 11 7 8 7 7 6 6 8 5 2 4 6 3 4 7 10 9 2 3 8 13 14 17 18 16 18
18 16 19 20 18 14 10 14 15 13 12 12 14 10 11 10 12 12 7 6 8 9 7 7 5 2 3 4 8 8 9 10 9 10 6 3 9 13 14 16 16 16 17
18 17 17 21 17 12 13 12 11 11 11 12 12 10 8 12 11 12 7 7 9 9 8 5 3 3 4 6 9 11 13 10 7 10 8 6 5 13 18 17 16 14 15
16 16 17 15 13 10 11 13 11 10 11 11 12 10 10 12 11 10 8 10 10 9 7 4 2 3 8 9 12 14 11 12 9 5 7 6 7 14 16 16 14 15 15
19 19 21 19 15 13 15 15 11 13 11 11 10 10 13 14 13 12 12 11 11 10 8 4 0 2 6 10 11 10 5 3 1 2 4 8 11 14 17 18 16 15 17
14 20 21 18 15 14 15 14 12 11 12 13 11 10 16 15 12 12 11 12 13 12 6 5 2 7 8 12 6 4 4 5 3 4 5 5 9 9 11 14 13 13 14
16 18 16 16 14 12 12 11 9 10 13 13 13 11 17 16 14 13 15 14 11 9 6 5 4 5 9 6 9 1 4 5 5 6 6 5 9 9 10 12 11 11 11
16 18 16 13 12 13 11 9 7 9 11 10 13 16 18 17 16 15 13 11 10 9 9 1 4 8 10 9 4 4 3 5 5 5 6 7 8 7 7 8 10 9 8
16 17 17 15 12 12 10 9 8 10 11 13 19 19 18 18 16 14 12 9 9 6 8 1 6 10 7 9 3 3 6 4 3 5 7 7 7 4 6 7 8 10 11
18 20 17 13 13 12 11 11 11 12 15 19 18 20 19 17 15 12 12 9 7 4 3 3 6 2 10 7 4 4 7 5 4 5 7 7 7 6 6 7 9 11 13
21 20 18 15 14 13 13 13 13 17 21 18 19 18 20 19 15 12 12 6 7 5 2 1 3 2 2 8 0 5 4 5 4 7 8 8 7 7 7 7 8 10 13
21 20 18 15 14 12 13 15 18 18 17 18 19 20 18 15 15 14 10 8 5 4 2 1 4 1 6 4 1 5 6 8 6 6 7 8 7 8 9 9 9 9 10
19 19 19 15 14 13 14 17 21 20 17 18 22 16 17 15 15 12 8 7 7 6 2 6 2 1 3 0 3 5 8 7 7 6 4 6 6 7 8 10 10 10 10
20 18 20 18 14 15 17 23 25 21 19 20 19 16 13 15 17 14 8 8 9 6 4 5 3 3 2 2 2 3 3 6 8 7 8 6 5 5 7 9 8 9 10
23 20 20 18 17 17 19 25 23 20 17 18 17 15 11 14 18 15 12 10 10 8 6 4 5 2 3 4 1 4 1 3 6 7 4 8 8 7 8 9 8 8 9
25 21 18 19 18 19 22 24 20 16 16 20 20 17 14 14 16 15 14 10 9 10 8 7 3 1 1 4 3 1 2 4 5 7 7 11 6 12 11 12 11 11 10
23 19 17 21 21 23 24 24 21 18 22 21 16 17 16 14 14 13 16 13 9 6 8 8 5 2 1 2 4 3 5 2 4 4 8 16 10 8 14 13 12 12 13
24 21 19 22 21 25 26 26 20 19 18 17 14 19 16 14 14 11 15 16 11 10 8 10 8 3 5 4 2 2 5 5 0 4 3 5 8 9 12 11 11 11 11
26 24 19 23 26 24 29 28 24 19 20 20 17 20 17 15 14 11 14 15 12 11 10 9 7 5 5 6 4 2 3 2 2 4 3 3 6 8 6 10 11 5 12
Wind_Direction
168 161 152 151 147 145 139 138 138 143 144 142 143 147 147 142 137 138 141 155 163 167 167 157 158 158 148 121 257 219 228 227 225 230 211 180 173 174 169 167 159 154 144
163 164 157 155 151 148 144 141 141 142 144 144 146 151 150 147 146 150 154 163 172 175 171 170 172 182 193 297 279 253 182 235 241 223 225 201 187 180 176 175 170 164 158
166 164 162 161 155 148 147 142 144 145 144 142 144 144 143 146 151 160 171 177 177 179 186 192 200 206 229 260 246 140 122 131 165 173 191 217 203 190 179 190 177 171 165
168 166 164 164 157 155 150 143 147 150 150 149 150 153 153 156 161 169 173 175 175 172 177 180 188 209 217 228 223 150 149 126 115 191 212 211 204 186 186 190 184 168 166
170 167 167 165 163 161 159 161 157 155 155 156 157 155 156 162 159 161 169 176 166 168 164 167 168 187 198 211 175 138 125 81 335 283 261 234 192 198 180 200 181 160 159
171 168 170 170 171 173 167 158 163 171 169 161 157 151 147 142 140 152 163 160 155 161 154 151 158 170 191 200 150 151 196 260 314 319 287 216 211 216 217 209 188 172 178
175 176 178 176 176 174 170 169 166 167 174 161 158 150 144 154 158 153 169 155 151 147 134 146 138 134 159 254 247 240 253 255 265 351 234 236 204 185 189 203 189 185 178
182 177 175 175 180 176 168 168 170 174 171 165 163 153 149 170 153 139 163 147 137 127 123 136 130 140 219 277 277 290 281 279 282 322 341 192 192 189 193 192 197 197 192
183 181 181 179 172 170 191 186 178 178 175 168 171 167 167 177 156 151 157 143 123 113 124 133 142 155 246 285 295 296 288 285 287 309 296 262 208 216 196 199 191 197 202
185 189 190 179 183 215 195 187 174 172 170 172 185 187 193 189 177 179 130 118 120 120 130 134 154 232 295 301 286 299 276 264 295 290 263 263 219 210 196 197 191 196 202
191 192 197 197 203 205 188 181 182 192 189 188 204 218 210 185 178 159 147 132 120 118 120 135 196 359 318 308 301 303 294 258 267 272 222 225 226 198 199 211 194 201 207
205 200 197 198 221 218 210 219 244 220 217 200 218 216 184 179 167 159 151 133 121 120 122 137 103 310 339 323 302 313 280 237 166 258 225 228 223 210 215 215 212 205 212
206 204 208 224 230 221 230 238 226 211 217 217 202 195 186 178 175 155 147 130 127 119 118 101 356 9 9 22 22 296 270 205 191 241 243 200 205 195 194 193 201 214 227
204 200 206 213 215 217 224 227 233 226 212 215 211 193 181 174 162 155 135 128 125 124 129 136 325 5 2 27 358 17 174 198 235 235 244 196 190 192 196 204 213 226 234
207 204 212 215 211 208 221 225 233 215 205 200 192 181 174 168 151 143 141 139 126 133 138 158 343 342 331 334 36 131 191 197 234 204 189 188 177 176 193 199 216 222 217
212 210 221 220 213 216 221 216 206 202 179 166 161 162 168 165 155 149 143 148 144 140 123 50 328 330 15 358 346 148 162 164 193 175 162 154 149 160 197 201 217 212 200
216 215 223 227 222 221 223 205 190 191 177 160 166 164 169 165 152 151 150 144 155 160 169 252 298 18 337 320 319 163 161 148 144 152 151 136 141 149 193 204 212 208 204
227 221 226 225 222 221 219 195 176 161 161 162 166 168 163 159 161 152 163 159 144 138 178 330 222 261 11 10 249 143 168 162 170 157 138 141 148 153 163 188 202 207 208
232 226 227 225 220 221 210 190 178 173 167 168 171 168 173 165 158 155 159 148 143 148 212 316 111 4 350 7 145 134 151 158 179 157 145 143 163 171 173 180 193 191 201
229 229 229 225 218 214 205 191 183 179 178 175 173 174 165 164 164 165 165 173 185 183 152 173 158 349 13 153 28 202 169 168 192 190 169 167 163 174 191 188 192 191 201
222 225 222 218 212 208 204 187 181 181 176 178 173 173 176 172 177 168 170 194 199 203 214 193 240 181 43 199 303 198 158 176 186 186 191 193 179 191 199 202 200 207 210
222 216 212 213 211 205 191 181 182 178 187 187 186 184 180 181 182 184 195 205 214 212 215 218 185 163 81 70 163 230 118 239 238 207 227 204 205 208 212 212 203 217 222
213 213 213 210 205 195 187 185 188 196 192 181 186 191 187 185 183 197 206 222 226 212 221 228 215 176 83 15 45 99 148 234 229 239 202 212 228 221 205 224 225 225 227
213 211 213 205 198 192 188 190 192 201 196 194 205 202 189 190 194 208 215 221 223 194 216 206 209 221 226 326 354 114 98 116 232 221 206 217 238 232 223 223 233 236 240
212 211 204 200 198 196 195 198 198 197 198 191 184 185 196 204 206 215 215 219 227 207 224 221 229 253 252 267 281 134 130 44 165 244 201 197 239 267 252 234 224 242 243
210 212 205 202 202 199 200 199 205 202 202 201 198 199 204 203 201 214 211 221 230 223 232 228 230 277 261 234 234 211 195 29 36 27 337 319 324 299 254 216 215 244 227